User: anonymous   Login
Location: Boissi�res
(45.2500°N, 2.3667°E)
Time: 19:55:23
(UTC+00:00)
Language:

ERS-2 - Orbit

View from above orbital plane
View from above orbital plane
View from above satellite
View from above satellite

Ground track
Ground track

The orbit data is extracted from the following two-line orbital elements,

1 23560U 95021A   21136.55377300  .00001019  00000-0  45927-4 0  9998
2 23560  98.5511 342.2601 0004595 109.4026 250.7704 15.23901579392832
Epoch (UTC): 16 May 2021 13:17:25
Eccentricity: 0.0004595
inclination: 98.5511°
perigee height: 491 km
apogee height: 497 km
right ascension of ascending node: 342.2601°
argument of perigee: 109.4026°
revolutions per day: 15.23901579
mean anomaly at epoch: 250.7704°
orbit number at epoch: 39283

The dashed part of the orbit path shows where the satellite is in the earth's shadow,  

DLR